• In Deutschland
  • Länderverzeichnis
  • Für 7 Tage
  • Wassertemperatur
  • Satellitenkarten
  • Wetterkarte
  • Widgets
  • user-avatar
    Anmelden

    Stündliche Wetter Wendelstein

    Heute, 11 Dezember, Montag

    Zeit Temperatur Niederschläge Wind Luftdruck Luftfeuchtigkeit
    00:00 +2°C° 0,1 mm 6 m/S 703 mmHg 86%
    01:00 +2°C° 0,1 mm 5 m/S 703 mmHg 86%
    02:00 +1°C° 0,4 mm 5 m/S 703 mmHg 87%
    03:00 +1°C° 0,4 mm 4 m/S 703 mmHg 89%
    04:00 +1°C° 0,4 mm 4 m/S 704 mmHg 90%
    05:00 +1°C° 0,7 mm 3 m/S 703 mmHg 92%
    06:00 +1°C° 0,7 mm 3 m/S 703 mmHg 93%
    07:00 +1°C° 0,7 mm 3 m/S 703 mmHg 94%
    08:00 +1°C° 0,8 mm 3 m/S 703 mmHg 93%
    09:00 +1°C° 0,8 mm 3 m/S 702 mmHg 92%
    10:00 +1°C° 0,8 mm 3 m/S 702 mmHg 91%
    11:00 +1°C° 0,2 mm 3 m/S 701 mmHg 90%
    12:00 +2°C° 0,2 mm 3 m/S 701 mmHg 88%
    13:00 +2°C° 0,2 mm 3 m/S 700 mmHg 87%
    14:00 +2°C° 0,2 mm 3 m/S 700 mmHg 88%
    15:00 +3°C° 0,2 mm 2 m/S 700 mmHg 89%
    16:00 +2°C° 0,2 mm 2 m/S 700 mmHg 90%
    17:00 +3°C° 0,1 mm 2 m/S 701 mmHg 90%
    18:00 +3°C° 0,1 mm 2 m/S 702 mmHg 89%
    19:00 +3°C° 0,1 mm 2 m/S 703 mmHg 89%
    20:00 +2°C° 0,4 mm 3 m/S 704 mmHg 90%
    21:00 +2°C° 0,4 mm 3 m/S 705 mmHg 91%
    22:00 +3°C° 0,4 mm 3 m/S 705 mmHg 92%
    23:00 +3°C° 0,7 mm 4 m/S 706 mmHg 91%

    Morgen, 12 Dezember, Dienstag

    Zeit Temperatur Niederschläge Wind Luftdruck Luftfeuchtigkeit
    00:00 +3°C° 0,7 mm 4 m/S 706 mmHg 90%
    01:00 +2°C° 0,7 mm 5 m/S 707 mmHg 90%
    02:00 +2°C° 0,4 mm 5 m/S 708 mmHg 89%
    03:00 +1°C° 0,4 mm 5 m/S 708 mmHg 88%
    04:00 +1°C° 0,4 mm 5 m/S 709 mmHg 87%
    05:00 +1°C° 0 mm 5 m/S 710 mmHg 86%
    06:00 -1°C° 0 mm 6 m/S 711 mmHg 85%
    07:00 -1°C° 0 mm 6 m/S 712 mmHg 84%
    08:00 -2°C° 0 mm 6 m/S 714 mmHg 84%
    09:00 -2°C° 0 mm 6 m/S 715 mmHg 84%
    10:00 -1°C° 0 mm 5 m/S 717 mmHg 85%
    11:00 -1°C° 0,1 mm 5 m/S 718 mmHg 84%
    12:00 0°C° 0,1 mm 5 m/S 719 mmHg 83%
    13:00 0°C° 0,1 mm 5 m/S 719 mmHg 82%
    14:00 -1°C° 0,1 mm 4 m/S 720 mmHg 83%
    15:00 -1°C° 0,1 mm 4 m/S 721 mmHg 84%
    16:00 -1°C° 0,1 mm 4 m/S 721 mmHg 85%
    17:00 -1°C° 0,1 mm 4 m/S 722 mmHg 86%
    18:00 -2°C° 0,1 mm 4 m/S 723 mmHg 87%
    19:00 -2°C° 0,1 mm 4 m/S 723 mmHg 88%
    20:00 -2°C° 0 mm 4 m/S 724 mmHg 89%
    21:00 -1°C° 0 mm 3 m/S 725 mmHg 89%
    22:00 -2°C° 0 mm 3 m/S 725 mmHg 90%
    23:00 -2°C° 0 mm 3 m/S 725 mmHg 91%

    übermorgen, 13 Dezember, Mittwoch

    Zeit Temperatur Niederschläge Wind Luftdruck Luftfeuchtigkeit
    00:00 -2°C° 0 mm 3 m/S 726 mmHg 91%
    01:00 -4°C° 0 mm 3 m/S 726 mmHg 92%
    02:00 -4°C° 0 mm 3 m/S 726 mmHg 92%
    03:00 -4°C° 0 mm 3 m/S 726 mmHg 92%
    04:00 -4°C° 0 mm 3 m/S 726 mmHg 91%
    05:00 -4°C° 0 mm 3 m/S 726 mmHg 91%
    06:00 -4°C° 0 mm 3 m/S 726 mmHg 91%
    07:00 -4°C° 0 mm 3 m/S 726 mmHg 91%
    08:00 -4°C° 0 mm 3 m/S 726 mmHg 89%
    09:00 -2°C° 0 mm 3 m/S 725 mmHg 86%
    10:00 -3°C° 0 mm 4 m/S 725 mmHg 84%
    11:00 -2°C° 0 mm 4 m/S 724 mmHg 80%
    12:00 -1°C° 0 mm 4 m/S 723 mmHg 77%
    13:00 0°C° 0 mm 5 m/S 722 mmHg 74%
    14:00 -1°C° 0 mm 4 m/S 721 mmHg 74%
    15:00 -1°C° 0 mm 4 m/S 721 mmHg 75%
    16:00 -2°C° 0 mm 4 m/S 720 mmHg 75%
    17:00 -1°C° 0,6 mm 4 m/S 719 mmHg 79%
    18:00 -1°C° 0,6 mm 5 m/S 719 mmHg 83%
    19:00 -1°C° 0,6 mm 5 m/S 719 mmHg 87%
    20:00 0°C° 0,6 mm 5 m/S 718 mmHg 88%
    21:00 0°C° 0,6 mm 5 m/S 718 mmHg 89%
    22:00 +1°C° 0,6 mm 5 m/S 717 mmHg 89%
    23:00 +1°C° 0,2 mm 5 m/S 717 mmHg 89%

    14 Dezember, Donnerstag

    Zeit Temperatur Niederschläge Wind Luftdruck Luftfeuchtigkeit
    00:00 +1°C° 0,2 mm 6 m/S 716 mmHg 88%
    01:00 +1°C° 0,2 mm 6 m/S 716 mmHg 87%
    02:00 +1°C° 0,7 mm 6 m/S 716 mmHg 88%
    03:00 +1°C° 0,7 mm 6 m/S 715 mmHg 89%
    04:00 +1°C° 0,7 mm 5 m/S 715 mmHg 90%
    05:00 +1°C° 0,3 mm 5 m/S 715 mmHg 91%
    06:00 +1°C° 0,3 mm 4 m/S 715 mmHg 92%
    07:00 +2°C° 0,3 mm 3 m/S 716 mmHg 93%
    08:00 +1°C° 0 mm 4 m/S 716 mmHg 93%
    09:00 +1°C° 0 mm 4 m/S 715 mmHg 92%
    10:00 +1°C° 0 mm 4 m/S 715 mmHg 91%
    11:00 +3°C° 0,1 mm 4 m/S 715 mmHg 89%
    12:00 +2°C° 0,1 mm 5 m/S 714 mmHg 87%
    13:00 +3°C° 0,1 mm 5 m/S 713 mmHg 85%
    14:00 +3°C° 0,2 mm 5 m/S 712 mmHg 86%
    15:00 +2°C° 0,2 mm 5 m/S 712 mmHg 87%
    16:00 +2°C° 0,2 mm 5 m/S 711 mmHg 87%
    17:00 +3°C° 0,6 mm 6 m/S 710 mmHg 86%
    18:00 +3°C° 0,6 mm 6 m/S 709 mmHg 84%
    19:00 +3°C° 0,6 mm 7 m/S 708 mmHg 82%
    20:00 +2°C° 1,9 mm 6 m/S 708 mmHg 84%
    21:00 +1°C° 1,9 mm 5 m/S 708 mmHg 85%
    22:00 0°C° 1,9 mm 4 m/S 708 mmHg 86%
    23:00 0°C° 0,4 mm 4 m/S 709 mmHg 87%

    15 Dezember, Freitag

    Zeit Temperatur Niederschläge Wind Luftdruck Luftfeuchtigkeit
    00:00 -1°C° 0,4 mm 4 m/S 710 mmHg 88%
    01:00 -1°C° 0,4 mm 4 m/S 711 mmHg 88%
    02:00 -1°C° 0,1 mm 4 m/S 712 mmHg 88%
    03:00 -2°C° 0,1 mm 4 m/S 713 mmHg 88%
    04:00 -2°C° 0,1 mm 4 m/S 714 mmHg 88%
    05:00 -2°C° 0 mm 4 m/S 714 mmHg 88%
    06:00 -2°C° 0 mm 4 m/S 714 mmHg 89%
    07:00 -2°C° 0 mm 4 m/S 715 mmHg 89%
    08:00 -2°C° 0 mm 4 m/S 715 mmHg 87%
    09:00 -2°C° 0 mm 4 m/S 715 mmHg 86%
    10:00 -1°C° 0 mm 4 m/S 716 mmHg 85%
    11:00 -1°C° 0 mm 4 m/S 716 mmHg 84%
    12:00 +1°C° 0 mm 3 m/S 715 mmHg 83%
    13:00 +1°C° 0 mm 3 m/S 715 mmHg 83%
    14:00 +2°C° 0 mm 2 m/S 715 mmHg 85%
    15:00 +1°C° 0 mm 2 m/S 715 mmHg 88%
    16:00 -1°C° 0 mm 2 m/S 715 mmHg 90%
    17:00 +1°C° 0 mm 1 m/S 715 mmHg 91%
    18:00 0°C° 0 mm 1 m/S 715 mmHg 92%
    19:00 0°C° 0 mm 1 m/S 715 mmHg 93%
    20:00 0°C° 0 mm 1 m/S 716 mmHg 93%
    21:00 0°C° 0 mm 1 m/S 716 mmHg 93%
    22:00 0°C° 0 mm 1 m/S 716 mmHg 93%
    23:00 0°C° 0 mm 1 m/S 716 mmHg 93%

    16 Dezember, Samstag

    Zeit Temperatur Niederschläge Wind Luftdruck Luftfeuchtigkeit
    00:00 -3°C° 0 mm 2 m/S 716 mmHg 93%
    01:00 -3°C° 0 mm 2 m/S 716 mmHg 93%
    02:00 -3°C° 0 mm 2 m/S 716 mmHg 92%
    03:00 -1°C° 0 mm 1 m/S 716 mmHg 91%
    04:00 -1°C° 0 mm 1 m/S 717 mmHg 90%
    05:00 -1°C° 0 mm 1 m/S 717 mmHg 91%
    06:00 -1°C° 0 mm 1 m/S 717 mmHg 91%
    07:00 0°C° 0 mm 1 m/S 718 mmHg 92%
    08:00 -2°C° 0 mm 2 m/S 718 mmHg 92%
    09:00 -1°C° 0 mm 2 m/S 719 mmHg 92%
    10:00 -1°C° 0 mm 2 m/S 720 mmHg 92%
    11:00 +1°C° 0,1 mm 2 m/S 720 mmHg 90%
    12:00 0°C° 0,1 mm 3 m/S 720 mmHg 89%
    13:00 0°C° 0,1 mm 3 m/S 720 mmHg 88%
    14:00 0°C° 0,1 mm 3 m/S 721 mmHg 88%
    15:00 0°C° 0,1 mm 3 m/S 721 mmHg 88%
    16:00 0°C° 0,1 mm 3 m/S 721 mmHg 88%
    17:00 0°C° 0,1 mm 3 m/S 722 mmHg 89%
    18:00 -1°C° 0,1 mm 3 m/S 722 mmHg 89%
    19:00 -1°C° 0,1 mm 3 m/S 723 mmHg 90%
    20:00 -1°C° 0,1 mm 3 m/S 723 mmHg 91%
    21:00 -1°C° 0,1 mm 3 m/S 724 mmHg 91%
    22:00 -1°C° 0,1 mm 3 m/S 724 mmHg 91%
    23:00 -1°C° 0,1 mm 3 m/S 724 mmHg 92%
    Mehr zeigen